Dewpoint
-12 -12 -11 -5 -2 -0 1 1 3 13 12 14 12 13 16 15 15 14 13 14 13 14 13 12 11 8 7 8 12 11 10 11
-11 -11 -11 -11 -10 -4 0 3 1 12 14 14 15 14 15 16 15 14 13 13 14 14 14 13 12 9 6 7 12 12 11 10
3 2 0 -4 -9 -9 -4 4 3 3 8 11 14 13 15 15 15 15 14 13 14 14 14 14 12 10 9 9 12 12 10 11
2 2 3 3 3 3 0 -2 -2 4 5 14 13 14 13 14 15 14 15 14 14 14 14 13 12 11 8 7 10 10 9 11
0 1 1 2 3 4 2 -1 2 4 3 10 11 13 13 14 14 14 15 15 13 14 14 14 12 10 10 7 8 9 8 10
-1 -0 -1 1 2 2 3 5 3 6 7 8 10 10 12 12 13 14 15 15 14 13 13 13 13 12 9 9 8 9 9 7
-1 -1 -1 -1 1 2 2 4 7 7 6 8 12 8 11 12 12 13 13 14 15 14 13 13 13 12 12 10 9 7 7 7
-2 -1 -1 -1 -1 1 2 4 6 7 6 8 12 11 11 12 11 13 12 12 15 15 14 14 13 13 13 12 11 10 7 5
-2 -2 -2 -2 -2 -1 -0 1 4 7 8 6 7 13 10 11 11 12 11 7 13 15 14 14 14 13 13 13 13 12 10 6
-1 -2 -2 -2 -1 -2 -2 -0 1 3 7 9 9 12 12 11 10 11 12 9 9 14 14 14 14 14 14 13 13 13 12 9
-2 -2 -2 -2 -1 -1 -2 -2 -1 -0 3 5 7 9 11 12 12 12 12 13 14 14 15 15 15 14 14 13 13 13 13 12
-2 -3 -3 -2 -2 -1 -2 -2 -2 -0 0 2 2 8 9 10 11 10 11 11 10 13 14 14 14 14 12 13 13 13 13 13
-2 -2 -2 -2 -3 -3 -2 -2 -2 -1 -0 0 1 2 5 9 9 10 11 12 10 11 13 11 12 13 13 13 13 13 13 12
-2 -2 -3 -3 -2 -3 -3 -3 -3 -4 -1 -0 -1 0 1 2 4 6 8 9 11 12 12 12 13 13 13 13 13 13 13 12
-4 -3 -2 -3 -3 -3 -3 -3 -3 -4 -6 -4 -2 -2 -2 -0 0 2 2 4 6 9 10 12 12 12 12 13 13 13 13 12
-5 -4 -3 -2 -3 -3 -3 -3 -3 -3 -3 -5 -5 -4 -4 -5 -2 -1 -0 1 1 2 3 4 6 6 6 12 13 13 12 13
-6 -5 -5 -3 -3 -3 -3 -3 -3 -3 -4 -3 -3 -3 -7 -7 -8 -5 -3 -1 -1 0 1 1 1 2 2 9 9 12 12 13
-7 -6 -5 -5 -4 -4 -3 -4 -4 -3 -4 -3 -3 -3 -3 -5 -5 -6 -9 -3 -1 -1 -1 0 0 1 2 4 6 9 12 12
-7 -7 -6 -5 -5 -5 -3 -3 -4 -5 -5 -4 -3 -4 -3 -3 -3 -3 -6 -5 -6 -3 -1 -1 -1 -0 1 2 1 4 8 10
Wind_Speed
40 43 41 40 40 31 33 43 33 43 43 44 41 44 40 40 47 50 49 54 52 48 46 46 44 41 40 39 36 37 35 32
41 46 48 41 41 42 43 35 42 39 45 45 41 44 42 42 46 50 48 53 57 51 50 47 46 45 44 44 40 42 37 34
45 31 27 34 42 42 38 37 44 42 46 46 48 48 50 50 48 47 49 53 56 55 51 50 49 47 46 47 44 42 37 36
48 50 41 33 32 30 29 38 47 37 40 46 48 49 51 46 47 49 47 50 55 55 53 49 50 50 50 50 51 49 44 41
45 48 45 45 46 38 28 29 37 29 45 47 48 51 49 52 47 47 49 50 52 57 56 50 52 53 49 50 53 51 49 48
41 40 35 33 41 41 34 24 32 36 31 47 48 48 44 48 51 47 49 50 53 55 60 54 53 54 51 51 55 54 49 51
42 45 45 41 36 31 32 29 16 35 37 39 47 50 50 48 50 52 47 51 51 53 59 58 53 55 55 57 56 58 57 53
49 45 50 52 46 38 35 26 26 20 35 34 37 53 51 52 54 57 54 47 49 55 58 57 61 56 59 59 59 58 59 55
49 49 47 50 50 49 41 36 25 18 13 34 46 48 50 55 54 54 58 62 55 59 60 57 61 62 60 58 61 60 58 56
46 50 50 48 51 53 47 43 37 25 13 6 27 11 30 49 48 52 56 63 58 57 60 60 62 61 61 59 58 60 58 57
46 47 45 46 46 49 52 42 42 36 26 25 14 4 9 14 18 36 44 44 47 47 57 59 57 61 57 57 57 58 57 56
35 40 40 40 42 43 47 48 43 45 43 36 37 18 8 10 11 10 24 24 27 25 43 51 50 52 55 59 60 58 59 56
28 34 38 37 40 42 41 44 44 50 44 47 42 40 26 13 12 10 27 17 34 35 29 32 36 47 50 55 57 59 62 58
27 35 38 39 36 39 34 41 41 42 42 48 46 46 42 38 25 17 5 6 20 30 32 33 37 47 54 57 58 62 63 60
28 29 33 38 35 34 38 37 42 40 40 40 38 45 42 40 36 30 23 18 10 9 11 23 45 33 36 56 62 63 65 62
29 30 31 32 36 35 35 36 35 35 38 41 41 33 32 35 35 33 30 26 24 22 15 11 5 10 7 48 48 55 52 62
26 27 30 30 36 32 34 34 31 33 39 36 30 33 34 28 30 27 29 29 29 24 22 21 17 13 11 22 26 49 49 59
26 26 26 30 33 32 31 32 34 31 34 32 30 28 27 31 26 25 26 21 21 28 23 21 20 18 18 13 7 16 47 39
23 24 24 25 30 33 26 28 33 34 31 28 28 29 28 24 24 26 27 27 24 19 19 21 21 18 21 17 19 5 18 27
Wind_Direction
297 295 291 282 280 274 251 245 248 216 224 227 224 205 207 208 201 209 205 203 203 200 202 202 202 204 198 192 194 199 197 187
286 287 285 287 282 276 265 258 239 217 211 219 221 212 203 203 199 211 208 205 203 199 200 201 200 207 204 197 194 198 197 189
360 353 332 296 282 284 269 256 249 230 226 220 221 222 204 202 202 207 212 207 201 199 198 201 206 209 204 196 194 197 196 189
347 346 340 334 329 309 296 280 265 231 224 218 221 220 215 205 201 201 206 207 204 200 199 205 210 212 209 206 201 205 194 193
353 344 329 339 324 324 303 284 267 254 224 224 222 219 211 208 204 205 199 208 209 205 205 202 213 214 210 212 210 208 201 192
360 356 348 341 321 326 329 305 264 261 280 216 219 227 222 218 214 207 202 207 210 206 208 201 211 216 217 216 212 209 202 206
358 7 7 5 0 346 337 317 305 257 280 230 221 219 219 221 216 214 209 200 206 207 206 203 209 219 217 216 218 215 213 212
1 359 1 13 11 14 10 342 327 283 268 225 242 218 219 218 221 218 210 219 204 208 206 204 206 216 218 218 217 217 216 217
1 1 0 8 16 21 22 17 7 350 283 237 245 225 217 221 221 219 219 216 219 211 212 210 205 215 219 220 220 221 222 221
358 360 3 4 20 19 15 20 28 24 19 153 218 237 219 217 226 222 222 218 222 212 212 209 205 212 219 222 225 224 222 221
1 360 3 9 17 24 20 20 29 29 50 55 74 156 197 193 220 218 221 223 209 208 207 207 205 210 222 227 228 232 231 227
359 5 5 9 21 24 25 30 25 43 48 53 61 91 179 120 174 192 223 248 239 244 218 211 210 215 224 224 228 232 229 233
354 2 7 9 15 20 23 25 29 44 43 50 49 64 78 103 87 138 211 225 231 242 230 227 228 224 222 223 226 230 232 235
2 5 10 14 13 13 18 17 28 37 40 44 42 45 52 56 62 71 97 201 222 227 234 230 221 232 231 228 230 230 226 232
7 4 5 11 15 17 14 22 24 34 38 42 40 42 40 45 49 50 53 63 96 183 198 221 226 237 222 224 231 228 224 226
8 6 3 3 13 14 11 24 23 28 34 42 37 35 39 40 41 42 38 43 48 55 69 77 176 204 266 217 211 219 234 230
7 6 4 4 2 17 8 17 23 24 38 30 33 29 33 29 35 38 33 31 35 37 39 37 31 43 62 193 203 211 213 224
2 6 7 360 358 8 6 14 17 25 31 26 21 28 21 30 31 28 31 31 35 27 24 28 32 32 35 105 127 201 210 216
1 2 4 5 356 3 6 11 8 16 22 20 16 22 22 10 23 23 28 23 25 25 12 8 18 11 43 36 26 113 183 194
Height
1426 1423 1422 1422 1421 1422 1424 1425 1428 1422 1431 1436 1441 1449 1454 1456 1458 1461 1469 1477 1484 1492 1499 1505 1511 1516 1524 1532 1538 1541 1546 1550
1426 1423 1417 1415 1414 1415 1415 1416 1418 1417 1419 1427 1434 1435 1444 1449 1453 1454 1460 1468 1475 1484 1491 1500 1503 1508 1516 1523 1532 1535 1542 1546
1423 1417 1412 1412 1411 1410 1413 1411 1410 1411 1413 1416 1424 1427 1435 1439 1444 1449 1452 1460 1467 1475 1482 1490 1496 1502 1510 1518 1524 1530 1538 1542
1429 1420 1415 1408 1402 1398 1397 1400 1402 1402 1403 1406 1416 1421 1425 1429 1436 1441 1445 1452 1460 1468 1475 1482 1488 1494 1500 1509 1516 1520 1528 1535
1435 1422 1408 1407 1404 1397 1388 1389 1387 1392 1397 1396 1401 1408 1405 1417 1425 1432 1434 1443 1450 1458 1466 1473 1479 1485 1492 1500 1508 1514 1518 1525
1446 1439 1428 1420 1408 1399 1389 1389 1382 1382 1389 1381 1386 1398 1405 1412 1417 1422 1429 1435 1441 1447 1454 1466 1470 1477 1485 1492 1498 1506 1513 1517
1449 1438 1429 1418 1409 1396 1387 1383 1384 1386 1386 1382 1381 1386 1397 1404 1406 1411 1417 1420 1433 1436 1446 1454 1461 1467 1475 1482 1489 1495 1503 1510
1449 1440 1430 1416 1405 1394 1384 1384 1379 1375 1373 1374 1379 1377 1384 1393 1399 1399 1410 1416 1424 1429 1437 1443 1451 1458 1464 1471 1478 1487 1493 1501
1458 1447 1437 1426 1414 1396 1392 1386 1380 1378 1375 1366 1369 1374 1376 1382 1389 1395 1396 1404 1415 1420 1424 1431 1441 1448 1454 1460 1467 1475 1484 1492
1464 1453 1444 1432 1419 1407 1397 1387 1381 1379 1373 1370 1365 1357 1373 1378 1380 1384 1391 1392 1404 1414 1419 1420 1428 1437 1445 1450 1457 1466 1474 1482
1470 1462 1450 1438 1427 1413 1404 1399 1394 1392 1375 1370 1363 1367 1369 1366 1375 1379 1384 1389 1374 1400 1409 1418 1421 1427 1434 1440 1448 1456 1464 1471
1476 1469 1459 1448 1436 1424 1411 1401 1402 1385 1377 1377 1374 1364 1367 1369 1375 1374 1372 1367 1370 1367 1395 1408 1416 1421 1429 1432 1438 1445 1451 1458
1479 1472 1463 1451 1441 1431 1423 1412 1405 1391 1394 1370 1379 1383 1376 1372 1375 1374 1375 1381 1383 1383 1387 1400 1411 1415 1420 1425 1430 1434 1439 1445
1479 1471 1465 1456 1448 1440 1433 1421 1410 1402 1399 1387 1379 1376 1380 1380 1378 1378 1379 1381 1380 1380 1386 1394 1394 1408 1411 1415 1419 1423 1428 1433
1482 1475 1468 1462 1455 1445 1435 1422 1416 1410 1404 1396 1397 1385 1386 1384 1388 1388 1388 1388 1384 1383 1384 1388 1392 1382 1397 1400 1406 1413 1417 1423
1483 1478 1471 1466 1459 1451 1444 1434 1428 1422 1412 1401 1402 1404 1399 1393 1394 1393 1397 1391 1386 1384 1383 1385 1386 1385 1385 1396 1392 1400 1410 1415
1488 1482 1476 1469 1463 1457 1451 1441 1439 1430 1418 1421 1422 1417 1404 1410 1399 1398 1397 1396 1391 1392 1388 1392 1391 1384 1389 1370 1384 1392 1398 1408
1490 1486 1480 1472 1466 1463 1458 1449 1445 1438 1429 1427 1431 1425 1424 1413 1413 1409 1401 1405 1401 1391 1400 1398 1397 1392 1381 1373 1380 1385 1389 1388
1494 1489 1484 1479 1472 1467 1463 1459 1449 1443 1442 1440 1437 1430 1423 1430 1423 1417 1407 1400 1398 1402 1401 1396 1396 1398 1375 1377 1386 1393 1387 1382